Tracking 20475 objects as of 27-Feb-2020
HD Live streaming from Space Station
objects crossing your sky now

BRAZILSAT B2

Track BRAZILSAT B2 now!
BRAZILSAT B2 is classified as:


NORAD ID: 23536
Int'l Code: 1995-016A
Perigee: 36,067.7 km
Apogee: 36,102.2 km
Inclination: 8.5 °
Period: 1,451.0 minutes
Semi major axis: 42455 km
RCS: 7.5458 m2 (large)
Launch date: March 28, 1995
Source: Brazil (BRAZ)
Launch site: FRENCH GUIANA (FRGUI)

24 C-band; several X-band.
aabbcc
Your satellite tracking list
Your tracking list is empty




NASA's NSSDC Master Catalog

Two Line Element Set (TLE):
1 23536U 95016A   20057.32123881 -.00000106 +00000-0 +00000-0 0  9990
2 23536 008.5127 045.8498 0004065 291.4864 120.2129 00.99241986091242
Source of the keplerian elements: AFSPC